Location: ??????????
(48.5701°N, 37.7703°E)
Time: 20:03:23
(UTC+00:00)

Cosmos 468 Rocket - Pass Details

Date: 14 July 2020
Orbit: 743 x 780 km, 74.0° (Epoch: 11 August)

Event Time Altitude Azimuth Distance (km) Brightness Sun altitude
Rises 00:53:21 0° 332° (NNW) 3,267 7.5 -7.0°
Reaches altitude 10° 00:55:49 10° 326° (NW) 2,338 6.7 -6.7°
Maximum altitude 01:00:51 45° 255° (WSW) 1,059 4.4 -6.1°
Drops below altitude 10° 01:05:52 10° 184° (S) 2,328 6.1 -5.5°
Sets 01:08:20 0° 178° (S) 3,251 6.9 -5.2°
